Lake Eufaula Weather Center

Moon Phase Calendar



Lake Eufaula Water Level
Online Cameras

 


      

Current Conditions in Georgetown
10/25/2020 6:12:58 PM

76°F
Feels Like 81
Clouds
Humidity
85%
Pressure
29.91"
Wind
3.7 mph (NNW)
Dew Point
71°F
UV Index
6/10 (High)
Visibility
6 mi

Hourly Forecast

Date & Time Sun, Oct 25
6:00 PM
Sun, Oct 25
7:00 PM
Sun, Oct 25
8:00 PM
Sun, Oct 25
9:00 PM
Sun, Oct 25
10:00 PM
Sun, Oct 25
11:00 PM
Mon, Oct 26
12:00 AM
Mon, Oct 26
1:00 AM
Mon, Oct 26
2:00 AM
Mon, Oct 26
3:00 AM
Mon, Oct 26
4:00 AM
Mon, Oct 26
5:00 AM
Mon, Oct 26
6:00 AM
Mon, Oct 26
7:00 AM
Mon, Oct 26
8:00 AM
Mon, Oct 26
9:00 AM
Mon, Oct 26
10:00 AM
Mon, Oct 26
11:00 AM
Mon, Oct 26
12:00 PM
Mon, Oct 26
1:00 PM
Mon, Oct 26
2:00 PM
Mon, Oct 26
3:00 PM
Mon, Oct 26
4:00 PM
Mon, Oct 26
5:00 PM
Mon, Oct 26
6:00 PM
Mon, Oct 26
7:00 PM
Mon, Oct 26
8:00 PM
Mon, Oct 26
9:00 PM
Mon, Oct 26
10:00 PM
Mon, Oct 26
11:00 PM
Tue, Oct 27
12:00 AM
Tue, Oct 27
1:00 AM
Tue, Oct 27
2:00 AM
Tue, Oct 27
3:00 AM
Tue, Oct 27
4:00 AM
Tue, Oct 27
5:00 AM
Tue, Oct 27
6:00 AM
Tue, Oct 27
7:00 AM
Tue, Oct 27
8:00 AM
Tue, Oct 27
9:00 AM
Tue, Oct 27
10:00 AM
Tue, Oct 27
11:00 AM
Tue, Oct 27
12:00 PM
Tue, Oct 27
1:00 PM
Tue, Oct 27
2:00 PM
Tue, Oct 27
3:00 PM
Tue, Oct 27
4:00 PM
Tue, Oct 27
5:00 PM
Condition
Clouds

Clouds

Clouds

Clouds

Clouds

Clouds

Clouds

Clouds

Clouds

Clouds

Clouds

Clouds

Clouds

Clouds

Clouds

Clear

Clear

Clear

Clear

Clear

Clouds

Clouds

Clouds

Clouds

Clouds

Clouds

Clouds

Clear

Clear

Clear

Clear

Clear

Clear

Clouds

Clouds

Clouds

Clouds

Clouds

Clouds

Clouds

Clouds

Clouds

Clouds

Clouds

Clouds

Rain

Rain

Rain
Temperature 76°F74°F72°F71°F70°F68°F67°F67°F66°F66°F66°F65°F65°F64°F64°F67°F71°F75°F77°F80°F80°F80°F80°F78°F77°F73°F71°F70°F69°F69°F69°F68°F68°F68°F67°F67°F68°F68°F69°F70°F72°F73°F75°F78°F80°F81°F81°F79°F
Feels Like 82°F78°F75°F74°F73°F71°F71°F70°F70°F70°F69°F68°F67°F66°F66°F69°F73°F77°F80°F82°F82°F82°F82°F82°F81°F77°F74°F72°F71°F71°F71°F71°F70°F70°F69°F69°F69°F70°F70°F71°F72°F74°F77°F80°F82°F84°F85°F85°F
Cloudiness 82%79%73%39%39%32%31%30%32%52%41%30%23%18%15%1%2%3%3%4%14%90%85%87%75%66%60%9%6%4%2%5%10%43%43%47%55%63%69%95%96%96%96%96%95%78%67%63%
Visibility 6 mi6 mi6 mi6 mi6 mi6 mi6 mi6 mi6 mi6 mi6 mi6 mi6 mi6 mi6 mi6 mi6 mi6 mi6 mi6 mi6 mi6 mi6 mi6 mi6 mi6 mi6 mi6 mi6 mi6 mi6 mi6 mi6 mi6 mi6 mi6 mi6 mi6 mi6 mi6 mi6 mi6 mi6 mi6 mi6 mi6 mi6 mi6 mi
Precipitation 0%0%0%0%0%0%0%0%0%0%0%0%0%0%0%0%0%0%0%0%0%0%0%0%2%0%0%0%0%0%0%0%0%0%0%0%0%0%0%0%0%0%0%0%0%27%64%75%
Humidity 85%82%81%80%80%83%85%86%87%86%87%88%90%91%92%88%82%73%66%61%59%60%60%67%73%83%87%89%90%91%93%95%95%95%96%96%95%94%93%90%87%84%80%75%73%73%75%80%
Dew Point 71°F68°F66°F64°F63°F63°F63°F63°F62°F62°F62°F62°F62°F62°F62°F63°F65°F66°F65°F65°F65°F65°F65°F67°F68°F68°F68°F67°F66°F66°F67°F67°F67°F67°F66°F66°F66°F67°F67°F67°F68°F68°F69°F70°F71°F71°F72°F73°F
Pressure 29.91"29.91"29.94"29.97"29.97"29.97"29.97"29.97"29.97"30"29.97"29.97"30"30"30.03"30.03"30.06"30.06"30.06"30.06"30.03"30"30"29.97"30"30"30.03"30.03"30.06"30.06"30.09"30.06"30.06"30.06"30.06"30.06"30.06"30.06"30.09"30.09"30.09"30.09"30.09"30.09"30.06"30.03"30"30"
Wind Speed 3.7 mph3.5 mph3.5 mph3.3 mph2.8 mph2.6 mph2.3 mph1.8 mph1.4 mph1.5 mph2.1 mph2.9 mph3.2 mph3.4 mph3.6 mph4.3 mph5 mph5.1 mph5.1 mph4.8 mph4.6 mph4.6 mph5.3 mph5.1 mph4.6 mph5.2 mph6.3 mph7 mph7.3 mph7.1 mph7.5 mph7.1 mph6.8 mph6.8 mph6.7 mph6.4 mph7.2 mph7.8 mph8.2 mph9.4 mph10 mph10.2 mph10.3 mph9.7 mph8.8 mph8.1 mph7.1 mph6.9 mph
Wind
Direction
346°
NNW
347°
NNW

N

N
21°
NNE
19°
NNE
32°
NNE
14°
NNE
23°
NNE

N

N
12°
NNE
25°
NNE
34°
NE
42°
NE
55°
NE
64°
ENE
63°
ENE
67°
ENE
85°
E
93°
E
90°
E
96°
E
86°
E
77°
ENE
63°
ENE
66°
ENE
74°
ENE
80°
E
83°
E
87°
E
89°
E
95°
E
90°
E
83°
E
73°
ENE
78°
ENE
85°
E
82°
E
89°
E
102°
ESE
100°
E
102°
ESE
109°
ESE
109°
ESE
110°
ESE
107°
ESE
88°
E

Daily Forecast

Date High Low Precip. Humidity
Today
Oct 25

Rain
77 °F
65 °F
24%
69%
Monday
Oct 26

Rain
80 °F
64 °F
20%
59%
Tuesday
Oct 27

Rain
80 °F
67 °F
100%
73%
Wednesday
Oct 28

Rain
76 °F
71 °F
100%
93%
Thursday
Oct 29

Rain
78 °F
63 °F
100%
85%
Friday
Oct 30

Clear
69 °F
53 °F
0%
55%
Saturday
Oct 31

Rain
68 °F
55 °F
39%
63%
Sunday
Nov 1

Rain
65 °F
58 °F
63%
71%
Monday
Nov 2

Rain
75 °F
63 °F
95%
75%
Tuesday
Nov 3

Rain
74 °F
62 °F
100%
76%
Wednesday
Nov 4

Rain
68 °F
59 °F
91%
69%
Thursday
Nov 5

Clear
73 °F
57 °F
0%
58%
Friday
Nov 6

Clear
76 °F
58 °F
0%
55%
Saturday
Nov 7

Clouds
76 °F
59 °F
0%
55%
Sunday
Nov 8

Clouds
69 °F
65 °F
0%
77%
Monday
Nov 9

Clouds
68 °F
64 °F
0%
79%


Temperature 8-14 Day Outlook



Precipitation 8-14 Day Outlook




Quick Links
Lake Eufaula News
Lake Eufaula Photos
Lake Eufaula Videos




About Us
Contact Us
Site Map
Search Site
Advertise With Us
   
www.LakeEufaula.info
THE LAKE EUFAULA WEBSITE

Copyright 2020, Lakes Online
Privacy    |    Legal